Location: Lafig�re
(44.4503°N, 4.0357°E)
Time: 06:24:40
(UTC+00:00)

Cosmos 1125 Rocket - Pass Details

Date: 22 January 2021
Orbit: 757 x 780 km, 74.0° (Epoch: 06 March)

Event Time Altitude Azimuth Distance (km) Brightness Sun altitude
Exits shadow 04:40:44 - 356° (N) 2,972 6.5 -26.8°
Reaches altitude 10° 04:43:05 10° 12° (NNE) 2,336 6.1 -26.4°
Maximum altitude 04:46:26 17° 51° (NE) 1,910 6.1 -25.8°
Drops below altitude 10° 04:49:47 10° 91° (E) 2,334 7.1 -25.2°
Sets 04:53:03 0° 111° (ESE) 3,259 8.0 -24.6°
